Temperature
14 14 14 14 14 14 14 14 14 14 14 14 14 14 14 14 14 15 15 15 15 15 15 15 15 15 15 15 15 15 15 15 15 15 15 15 15 15 15 15 15 15 15
14 14 13 14 13 13 14 14 14 14 14 14 14 14 14 14 14 14 15 14 14 14 15 15 15 15 15 15 15 14 14 15 14 14 14 14 15 15 15 15 15 15 15
14 14 13 13 13 13 13 13 13 14 14 14 14 14 14 14 14 14 14 14 14 14 14 14 15 15 15 15 14 14 14 14 14 14 14 14 14 14 14 14 14 14 14
13 13 13 13 13 13 13 13 13 13 13 13 14 14 14 14 14 14 14 14 14 14 14 14 14 14 15 14 14 14 14 14 14 14 14 14 14 14 14 14 14 14 14
13 13 13 13 13 13 13 13 13 13 13 13 13 13 13 13 14 14 14 14 14 14 14 14 14 14 14 14 14 14 14 14 14 14 14 14 14 14 14 14 14 14 14
13 13 13 13 12 12 13 13 13 13 13 13 13 13 13 13 13 13 13 13 13 13 13 13 13 14 14 14 14 14 14 14 14 14 14 14 13 13 13 14 14 14 14
13 12 12 12 12 12 12 12 12 12 13 13 13 13 13 13 13 13 13 13 13 13 13 13 13 13 13 14 14 14 13 14 14 13 13 13 13 13 13 13 13 13 13
12 12 12 12 12 12 12 12 12 12 12 12 12 13 13 13 13 13 13 13 13 13 13 13 13 13 13 13 13 13 13 13 13 13 13 13 13 13 13 13 13 13 13
11 11 11 12 12 12 12 12 12 12 12 12 12 12 12 12 12 12 12 12 12 12 12 12 12 13 13 13 13 13 13 13 13 13 13 13 13 13 13 13 13 13 13
11 11 11 11 11 11 12 12 12 12 12 12 12 12 12 12 12 12 12 12 12 12 12 12 12 12 12 12 12 12 13 13 13 13 13 12 12 13 13 13 13 13 13
10 11 11 11 11 11 11 11 11 11 11 11 11 11 11 12 12 12 12 12 12 12 12 12 12 12 12 12 12 12 12 12 12 12 12 12 12 12 12 12 12 12 12
10 10 10 10 11 11 11 11 11 11 11 11 11 11 11 11 11 11 11 11 11 11 11 11 11 11 11 11 11 12 12 12 12 12 12 12 12 12 12 12 12 12 12
10 10 10 10 10 10 10 10 10 10 10 10 10 10 10 10 11 11 11 11 11 11 11 11 11 11 11 11 11 11 11 11 11 11 11 11 11 11 11 11 11 11 11
10 10 10 10 10 10 10 10 10 10 10 10 10 10 10 10 10 10 10 10 10 10 10 11 11 11 11 11 11 11 11 11 11 11 11 11 11 11 11 11 11 11 11
9 9 9 9 9 9 9 10 10 10 10 9 10 10 10 10 10 10 10 10 10 10 10 10 10 10 10 10 10 10 10 10 10 10 10 10 10 10 10 10 10 10 10
8 9 9 9 9 9 9 9 9 9 9 9 9 9 9 9 10 10 10 10 10 10 10 10 10 10 10 10 10 10 10 10 10 10 10 10 10 10 10 10 10 10 10
8 8 8 8 8 8 8 9 9 9 9 9 9 9 9 9 9 9 9 9 9 9 9 9 9 9 9 9 9 9 9 9 9 9 9 9 9 9 9 9 9 9 9
7 8 8 8 8 8 8 8 8 8 8 8 8 8 8 9 9 9 9 9 9 9 9 9 9 9 9 9 9 9 9 9 9 9 9 9 9 9 9 9 9 9 9
7 7 7 7 7 8 7 7 8 8 8 8 8 8 8 8 8 8 8 8 8 8 8 8 8 8 8 8 8 8 8 8 9 9 9 9 8 9 9 9 9 9 8
7 7 7 7 7 7 7 7 7 7 7 7 7 7 7 7 8 8 8 8 8 8 8 8 8 8 8 8 8 8 8 8 8 8 8 8 8 8 8 8 8 8 8
6 6 6 6 6 7 7 7 7 7 7 7 7 7 7 7 7 7 7 7 7 7 7 7 7 7 7 7 7 7 7 7 7 8 8 8 8 8 8 8 8 8 8
6 6 6 6 6 6 6 6 6 6 6 6 6 6 6 6 6 6 6 6 6 6 6 7 7 7 7 7 6 6 6 6 6 7 7 7 7 7 7 7 7 7 7
5 5 5 5 5 5 6 5 5 5 5 6 6 6 6 6 5 6 6 6 6 6 6 6 6 6 6 6 6 6 6 6 6 6 6 6 6 7 7 7 7 7 7
4 5 5 5 5 5 5 5 5 5 5 5 5 5 5 5 5 5 5 5 5 5 5 5 5 5 6 6 6 6 6 5 5 5 5 6 6 6 6 6 6 6 6
4 4 4 4 4 4 4 4 4 4 5 5 5 5 5 5 4 4 4 4 4 5 5 5 5 5 5 5 5 5 5 5 5 5 4 5 5 6 6 6 6 6 6
3 3 3 4 4 4 4 4 4 4 4 4 4 4 4 4 4 4 4 4 4 4 4 4 4 4 4 4 4 5 5 5 5 4 4 5 5 5 5 5 5 5 5
Wind_Speed
2 3 3 4 6 7 8 9 9 10 10 11 11 12 12 12 12 12 12 12 13 13 14 14 14 15 15 15 16 16 17 17 17 17 17 17 17 17 17 17 16 16 18
2 4 4 5 7 8 9 9 9 10 10 11 11 11 11 11 11 11 11 12 13 13 14 14 14 15 15 15 15 15 16 16 16 16 16 15 16 16 17 17 16 16 18
2 3 4 6 8 9 9 9 9 10 10 10 10 11 11 11 11 11 11 12 12 13 13 14 14 15 15 15 15 15 15 15 15 15 14 13 13 15 16 16 17 17 17
3 3 3 7 8 9 10 9 9 10 10 10 9 10 10 11 10 11 11 12 12 13 13 13 14 14 14 14 14 14 14 14 14 14 12 12 12 14 15 16 16 17 17
4 3 4 7 8 9 9 9 9 9 9 9 9 9 10 10 10 10 10 11 12 12 12 13 13 14 14 14 14 14 14 14 13 13 12 12 12 14 15 16 16 16 16
3 4 4 7 8 8 9 10 9 9 9 9 9 9 9 9 10 10 10 11 12 12 12 13 13 13 13 13 13 13 13 13 13 13 12 11 11 14 15 15 15 15 16
3 4 4 7 7 8 9 9 10 9 9 9 9 10 10 10 10 9 10 10 11 11 12 12 12 13 13 13 13 13 13 13 13 11 10 11 12 14 14 15 14 14 15
4 4 5 6 7 8 8 9 9 9 9 9 9 9 10 10 9 9 9 9 10 10 11 12 12 12 12 12 12 12 12 12 11 10 10 10 12 13 13 13 13 13 14
5 5 4 4 6 7 8 9 9 8 8 9 9 9 9 9 9 9 9 9 9 9 11 11 11 12 12 12 12 12 12 11 10 9 9 9 11 11 12 12 12 12 13
4 4 4 5 5 6 7 8 9 8 8 8 9 9 9 9 9 8 8 8 9 9 10 10 11 11 11 11 11 11 11 10 10 9 8 9 10 10 11 11 11 11 11
3 3 3 4 4 5 6 7 8 8 8 8 8 8 8 8 8 7 7 8 9 9 9 10 10 10 11 10 10 10 9 8 8 7 7 8 9 9 10 10 11 10 11
1 1 2 3 4 5 5 5 6 6 6 7 8 8 7 7 7 7 8 8 9 8 9 10 10 10 9 8 8 8 8 8 7 6 6 7 8 9 10 10 10 11 11
2 1 1 1 3 4 4 5 5 5 6 6 7 7 7 7 6 7 7 7 7 8 7 8 9 8 7 7 7 7 7 7 6 6 6 7 7 8 9 9 10 10 11
1 1 0 1 2 3 4 4 5 5 5 5 5 6 6 5 5 5 6 6 6 6 6 7 7 7 7 7 7 7 6 6 5 5 5 6 7 8 8 9 9 9 10
1 1 1 1 2 3 4 4 4 4 4 4 5 5 6 5 4 4 5 5 5 5 5 6 6 6 6 6 6 6 6 6 6 5 5 6 6 7 7 7 8 8 8
2 2 1 1 2 3 3 3 3 4 4 4 4 4 5 5 4 4 4 4 4 4 5 5 5 5 4 5 5 5 5 5 5 5 5 6 6 6 6 6 7 7 8
2 1 1 2 2 3 3 3 3 3 4 3 3 4 4 5 5 4 3 3 3 4 5 5 5 5 4 4 4 5 5 5 5 5 5 6 6 6 6 6 6 7 6
2 1 1 0 1 3 3 3 3 3 3 3 3 3 4 5 5 5 3 3 4 5 4 4 3 3 3 3 3 3 3 4 4 4 5 5 5 5 5 7 7 6 5
2 2 1 0 1 2 3 3 3 3 3 3 3 3 2 4 5 5 4 3 4 4 4 3 3 2 3 2 2 2 2 3 3 4 5 5 5 5 5 5 6 5 4
1 2 2 1 1 2 2 2 2 3 3 3 3 2 3 3 5 5 4 4 4 3 3 3 3 3 2 2 2 2 2 2 3 3 3 3 4 4 5 5 4 4 4
1 1 2 2 2 2 2 2 2 2 2 1 1 2 2 3 4 4 3 3 3 3 3 4 4 3 2 2 2 2 2 2 2 2 2 3 3 3 4 4 3 3 3
2 2 2 3 3 2 2 2 2 2 2 1 1 1 2 3 3 3 4 3 3 3 3 4 4 3 2 1 2 2 1 1 2 1 1 1 2 2 2 2 3 2 2
2 3 3 3 2 2 2 2 2 2 1 1 1 1 0 2 2 3 4 4 3 3 3 3 4 4 4 1 1 2 3 2 1 1 1 1 1 1 1 1 1 1 1
3 2 2 2 2 2 2 3 4 3 3 2 2 2 0 1 2 3 3 4 4 3 3 3 3 3 4 3 1 1 1 3 2 1 1 1 1 1 1 0 1 2 2
2 1 1 1 1 1 2 4 5 4 3 2 2 2 2 1 1 2 3 3 3 3 4 3 3 2 3 3 2 1 1 1 1 2 2 1 2 2 1 1 2 2 2
1 1 1 0 1 1 2 3 4 5 4 3 2 3 2 1 1 2 3 3 3 3 4 4 3 3 3 3 2 2 2 2 2 2 2 2 2 2 2 2 2 2 3
Wind_Direction
246 265 210 142 124 117 114 110 107 106 104 103 102 101 101 101 99 96 95 92 91 90 88 88 88 87 84 83 83 81 78 77 77 75 76 79 80 81 79 78 80 82 86
216 208 176 140 127 124 118 114 110 106 105 105 104 102 101 100 101 99 97 95 92 92 90 90 90 88 87 85 83 82 81 78 76 74 74 76 80 82 82 80 83 88 89
125 164 161 137 128 125 122 114 110 107 105 106 105 104 103 101 99 99 97 95 93 92 91 91 91 90 89 88 86 84 82 80 75 72 72 73 79 84 85 83 87 90 90
120 139 144 129 129 127 123 118 113 110 107 106 104 104 103 101 98 100 99 96 94 92 92 92 92 92 90 90 88 87 84 80 75 70 69 71 79 85 87 86 88 90 89
104 121 131 125 126 128 124 119 115 113 111 108 103 101 101 99 97 96 97 97 96 95 95 94 93 94 93 92 91 90 86 81 74 70 69 72 79 85 87 86 86 88 89
100 114 131 126 122 123 125 123 117 114 111 110 104 98 98 99 97 94 95 96 96 98 98 97 94 94 93 93 93 91 87 82 75 72 72 75 81 87 87 88 87 88 88
101 99 124 127 123 122 119 122 118 113 108 106 105 101 97 96 94 92 88 94 98 99 100 98 96 95 94 94 94 92 87 82 77 74 75 79 86 88 88 89 89 90 90
92 97 113 125 126 124 120 116 113 111 106 103 100 101 99 98 94 90 87 88 98 101 101 99 97 97 95 94 94 92 88 83 79 76 75 81 89 91 89 88 88 91 92
79 81 85 100 121 124 119 115 110 104 106 104 98 95 96 98 96 93 88 87 91 98 101 101 98 98 96 94 92 91 86 81 76 75 77 81 87 91 92 91 91 93 95
68 68 75 84 95 107 114 113 108 105 103 103 98 93 92 90 88 89 88 91 89 91 98 100 100 97 95 94 90 88 83 79 74 73 77 87 91 93 94 93 96 97 97
68 55 68 81 88 98 105 111 109 105 102 100 98 93 92 86 82 79 82 88 89 86 95 96 95 95 93 90 87 85 82 80 77 74 82 92 96 98 96 96 98 102 103
144 80 65 89 91 93 98 98 96 97 96 96 94 91 93 93 90 90 90 85 88 86 92 96 92 89 84 82 80 81 80 78 78 74 86 94 100 103 102 102 101 97 98
189 161 93 100 107 104 96 94 90 93 90 91 91 91 94 90 89 87 85 79 79 80 84 90 82 76 77 80 79 77 76 76 76 72 78 90 100 104 107 108 105 100 96
161 201 170 84 114 114 108 103 103 98 92 90 94 95 94 85 78 77 77 80 77 78 77 81 81 79 77 76 78 76 70 68 68 69 70 86 100 105 108 110 108 105 101
188 245 212 116 126 121 110 104 104 103 104 105 103 101 102 96 90 84 80 80 82 83 81 78 80 79 76 73 71 72 66 62 61 61 63 71 91 97 99 107 111 109 105
218 240 226 157 132 118 118 116 116 113 118 116 110 111 115 112 106 100 94 82 77 83 90 92 91 87 78 76 68 64 65 64 59 60 61 63 70 81 90 101 108 107 105
223 226 225 186 134 134 133 126 117 116 121 112 120 127 123 122 117 113 103 93 85 95 97 95 92 89 85 76 67 55 58 59 60 60 64 64 62 65 73 86 96 103 105
200 195 210 188 137 142 135 125 117 115 115 106 118 132 135 131 126 118 107 101 110 109 99 104 109 110 99 86 74 55 49 50 51 62 67 66 64 64 65 66 71 88 98
198 184 182 184 166 148 139 122 113 111 106 100 103 111 132 136 131 125 120 111 113 111 106 112 113 118 121 100 87 67 53 47 36 58 62 61 62 64 64 62 61 66 85
213 182 179 197 185 140 133 123 110 101 89 84 86 97 110 125 134 130 121 113 114 113 119 123 119 98 120 119 95 72 53 48 46 53 62 64 59 59 59 60 59 60 69
211 194 190 202 205 149 160 170 169 180 166 118 77 99 119 116 121 132 129 124 124 131 143 140 133 121 103 106 99 79 44 51 54 37 47 63 54 56 61 58 58 61 61
207 221 211 210 203 184 187 179 171 168 169 171 119 103 131 136 134 128 124 136 137 137 131 137 133 142 130 110 122 127 85 358 5 4 20 62 44 58 58 56 56 52 54
242 226 225 219 208 197 180 152 139 126 120 159 181 183 162 159 155 143 139 136 132 144 160 162 165 155 163 167 107 134 146 200 279 320 336 29 5 45 50 71 88 90 84
263 254 237 213 202 195 174 168 168 178 191 199 194 192 172 155 160 154 149 150 151 152 159 171 168 171 164 173 180 51 109 144 156 247 306 324 327 292 247 213 179 156 143
268 262 259 226 222 213 188 183 181 190 198 189 179 177 181 161 165 167 166 163 161 167 174 175 172 172 173 177 171 152 136 80 120 172 234 285 313 286 268 225 197 183 178
318 315 304 240 267 232 207 195 190 192 189 181 185 194 202 200 187 188 188 179 176 181 183 185 184 182 192 183 180 170 163 165 179 176 204 228 264 289 289 240 209 198 192
Height
1519 1521 1523 1524 1526 1528 1529 1530 1531 1532 1533 1534 1535 1535 1536 1537 1537 1538 1539 1539 1540 1540 1540 1541 1541 1541 1542 1542 1543 1543 1543 1544 1544 1544 1544 1545 1545 1545 1545 1544 1545 1545 1546
1518 1521 1523 1524 1526 1528 1529 1530 1531 1532 1533 1534 1535 1536 1537 1537 1538 1539 1540 1540 1541 1541 1541 1542 1542 1542 1543 1543 1544 1544 1545 1545 1546 1546 1546 1547 1547 1547 1547 1547 1547 1548 1548
1518 1520 1523 1524 1526 1527 1529 1530 1532 1533 1534 1535 1536 1536 1537 1538 1539 1540 1540 1541 1541 1542 1542 1543 1543 1544 1544 1544 1545 1545 1546 1547 1547 1548 1548 1548 1549 1549 1549 1549 1550 1550 1551
1518 1520 1522 1524 1526 1527 1529 1530 1532 1533 1534 1535 1536 1537 1538 1539 1540 1540 1541 1541 1542 1543 1543 1544 1544 1545 1545 1545 1546 1547 1547 1548 1549 1549 1550 1550 1551 1551 1551 1551 1552 1552 1553
1519 1521 1522 1524 1525 1527 1529 1530 1532 1533 1534 1535 1536 1537 1538 1539 1540 1541 1541 1542 1543 1543 1544 1545 1545 1546 1546 1546 1547 1548 1549 1549 1550 1551 1551 1552 1552 1553 1553 1554 1554 1554 1555
1518 1520 1522 1524 1525 1527 1528 1530 1531 1533 1534 1535 1536 1537 1538 1539 1540 1541 1542 1543 1543 1544 1545 1545 1546 1547 1547 1548 1548 1549 1550 1551 1551 1552 1553 1553 1554 1555 1555 1555 1556 1556 1557
1518 1520 1522 1523 1525 1527 1528 1529 1531 1532 1534 1535 1536 1537 1538 1539 1540 1541 1542 1543 1544 1544 1545 1546 1546 1547 1548 1548 1549 1550 1551 1552 1552 1553 1554 1555 1555 1556 1556 1557 1557 1558 1559
1518 1520 1521 1523 1525 1526 1528 1529 1530 1532 1533 1534 1536 1537 1538 1539 1540 1541 1542 1543 1544 1545 1546 1546 1547 1548 1548 1549 1550 1551 1552 1552 1553 1554 1555 1556 1557 1557 1558 1558 1559 1559 1560
1518 1519 1521 1523 1524 1525 1527 1528 1530 1531 1533 1534 1535 1536 1538 1539 1539 1540 1541 1542 1544 1545 1545 1546 1547 1548 1549 1550 1551 1552 1553 1553 1554 1555 1556 1557 1558 1558 1559 1559 1560 1560 1561
1517 1519 1520 1522 1523 1524 1526 1527 1529 1530 1532 1533 1534 1536 1537 1538 1539 1540 1541 1542 1543 1544 1545 1546 1547 1548 1549 1550 1551 1552 1553 1554 1555 1556 1556 1557 1558 1559 1560 1560 1561 1561 1561
1516 1518 1519 1521 1522 1523 1524 1526 1528 1529 1531 1532 1533 1535 1536 1537 1538 1539 1540 1541 1542 1543 1545 1546 1547 1548 1549 1550 1552 1553 1553 1554 1555 1556 1557 1558 1559 1560 1560 1561 1561 1562 1562
1514 1516 1518 1519 1521 1522 1523 1525 1526 1528 1529 1530 1532 1533 1534 1536 1537 1538 1539 1541 1542 1543 1545 1546 1547 1548 1549 1550 1551 1552 1553 1554 1555 1556 1557 1558 1559 1560 1560 1561 1562 1562 1562
1513 1514 1516 1518 1519 1521 1522 1523 1525 1526 1528 1529 1530 1532 1533 1534 1536 1537 1538 1540 1541 1542 1544 1545 1546 1547 1549 1550 1551 1552 1553 1554 1555 1556 1557 1558 1559 1560 1560 1561 1562 1562 1563
1511 1513 1514 1516 1518 1519 1520 1522 1523 1525 1526 1527 1529 1530 1532 1533 1534 1535 1537 1538 1540 1541 1542 1544 1545 1546 1548 1549 1550 1551 1553 1553 1555 1556 1557 1558 1559 1560 1560 1561 1561 1562 1563
1509 1511 1512 1514 1516 1517 1519 1520 1522 1523 1524 1526 1527 1529 1530 1531 1532 1534 1535 1537 1538 1539 1540 1542 1543 1545 1546 1548 1549 1550 1552 1553 1554 1555 1556 1557 1558 1559 1560 1561 1561 1562 1562
1507 1508 1510 1512 1514 1515 1516 1518 1519 1521 1523 1524 1525 1527 1528 1529 1530 1532 1533 1535 1536 1537 1539 1540 1542 1543 1545 1546 1547 1549 1550 1552 1553 1554 1555 1556 1557 1558 1559 1560 1560 1561 1562
1505 1506 1508 1509 1511 1513 1514 1516 1517 1519 1520 1522 1523 1525 1526 1527 1528 1530 1531 1532 1534 1536 1537 1538 1540 1541 1543 1544 1546 1547 1549 1550 1551 1552 1553 1554 1555 1557 1558 1559 1559 1560 1561
1503 1504 1505 1507 1508 1510 1512 1513 1515 1516 1518 1519 1521 1523 1524 1525 1526 1527 1529 1530 1532 1533 1535 1536 1537 1539 1540 1542 1543 1545 1547 1548 1550 1551 1552 1553 1554 1555 1556 1556 1557 1558 1559
1499 1501 1502 1504 1506 1507 1509 1511 1512 1513 1515 1516 1518 1520 1521 1522 1523 1525 1526 1528 1529 1531 1532 1533 1535 1537 1538 1540 1541 1543 1544 1546 1547 1549 1550 1551 1552 1553 1554 1555 1556 1557 1558
1497 1498 1500 1501 1502 1504 1506 1508 1509 1510 1512 1513 1515 1516 1518 1519 1520 1522 1523 1525 1527 1528 1529 1531 1533 1534 1536 1537 1539 1540 1542 1543 1545 1546 1547 1548 1549 1551 1552 1553 1554 1555 1556
1494 1495 1497 1498 1499 1501 1503 1504 1506 1507 1508 1510 1512 1513 1515 1516 1517 1519 1520 1522 1523 1525 1526 1528 1529 1531 1533 1535 1536 1537 1539 1541 1542 1543 1545 1546 1547 1548 1550 1551 1552 1553 1554
1491 1492 1494 1495 1496 1498 1500 1501 1503 1504 1505 1507 1509 1510 1512 1513 1514 1515 1517 1518 1520 1521 1523 1525 1526 1528 1530 1532 1533 1534 1536 1539 1539 1541 1542 1542 1544 1545 1547 1548 1549 1550 1551
1488 1489 1490 1491 1493 1495 1496 1498 1500 1501 1502 1504 1505 1507 1508 1510 1512 1513 1514 1515 1517 1518 1520 1521 1523 1525 1527 1529 1531 1532 1533 1534 1536 1538 1538 1539 1541 1542 1543 1544 1545 1546 1548
1485 1486 1487 1488 1489 1491 1493 1494 1495 1496 1498 1499 1501 1503 1505 1507 1508 1509 1511 1512 1513 1515 1517 1518 1520 1522 1524 1526 1528 1529 1531 1531 1533 1533 1535 1537 1538 1539 1540 1541 1542 1543 1544
1482 1483 1483 1484 1486 1487 1489 1490 1492 1493 1494 1496 1498 1500 1502 1503 1505 1506 1507 1508 1510 1511 1514 1515 1517 1519 1521 1523 1524 1525 1527 1528 1529 1530 1530 1532 1534 1535 1536 1537 1538 1539 1540
1479 1479 1480 1481 1482 1484 1485 1487 1488 1489 1491 1492 1494 1495 1497 1499 1501 1502 1503 1505 1506 1508 1510 1511 1513 1515 1517 1519 1521 1522 1524 1525 1526 1527 1527 1528 1529 1531 1533 1533 1534 1535 1536